Time,TemperatureF,DewpointF,PressureIn,WindDirection,WindDirectionDegrees,WindSpeedMPH,WindSpeedGustMPH,Humidity,HourlyPrecipIn,Conditions,Clouds,dailyrainin,SolarRadiationWatts/m^2,SoftwareType,DateUTC
2013-07-01 00:07:00,61.8,60.6,29.88,South,188,1.0,2.0,96,0.00,SCT,FEW,0.00,0.0,WeatherDisplay:10.37,2013-07-01 04:07:00,
2013-07-01 00:17:00,61.6,60.4,29.88,South,188,0.0,1.0,96,0.01,RA,FEW,0.01,0.0,WeatherDisplay:10.37,2013-07-01 04:17:00,
2013-07-01 00:22:00,61.5,60.3,29.88,South,188,0.0,1.0,96,0.00,SCT,FEW,0.01,0.0,WeatherDisplay:10.37,2013-07-01 04:22:00,
2013-07-01 00:27:00,61.3,60.2,29.88,South,189,0.0,3.0,96,0.00,SCT,FEW,0.01,0.0,WeatherDisplay:10.37,2013-07-01 04:27:00,
2013-07-01 00:32:00,61.2,60.1,29.88,South,189,0.0,1.0,96,0.00,SCT,FEW,0.01,0.0,WeatherDisplay:10.37,2013-07-01 04:32:00,
2013-07-01 00:37:00,61.2,60.0,29.89,South,190,0.0,2.0,96,0.00,SCT,FEW,0.01,0.0,WeatherDisplay:10.37,2013-07-01 04:37:00,
2013-07-01 00:47:00,61.0,60.1,29.89,SSW,194,0.0,1.0,97,0.00,SCT,FEW,0.01,0.0,WeatherDisplay:10.37,2013-07-01 04:47:00,
2013-07-01 00:52:00,61.0,60.1,29.88,SSW,194,0.0,1.0,97,0.00,SCT,FEW,0.01,0.0,WeatherDisplay:10.37,2013-07-01 04:52:00,
2013-07-01 00:57:00,60.9,60.0,29.88,SSW,194,0.0,0.0,97,0.00,SCT,FEW,0.01,0.0,WeatherDisplay:10.37,2013-07-01 04:57:00,
2013-07-01 01:07:00,60.9,60.0,29.88,SSW,194,0.0,1.0,97,0.00,SCT,FEW,0.01,0.0,WeatherDisplay:10.37,2013-07-01 05:07:00,
2013-07-01 01:17:00,60.7,59.8,29.89,SSW,194,0.0,1.0,97,0.00,SCT,FEW,0.01,0.0,WeatherDisplay:10.37,2013-07-01 05:17:00,
2013-07-01 01:22:00,60.6,59.8,29.88,SSW,194,0.0,0.0,97,0.00,SCT,FEW,0.01,0.0,WeatherDisplay:10.37,2013-07-01 05:22:00,
2013-07-01 01:27:00,60.5,59.7,29.88,SSW,194,0.0,0.0,97,0.00,SCT,FEW,0.01,0.0,WeatherDisplay:10.37,2013-07-01 05:27:00,
2013-07-01 01:32:00,60.5,59.6,29.89,SSW,194,0.0,0.0,97,0.00,SCT,FEW,0.01,0.0,WeatherDisplay:10.37,2013-07-01 05:32:00,
2013-07-01 01:42:00,60.3,59.4,29.89,SSW,194,0.0,1.0,97,0.00,SCT,FEW,0.01,0.0,WeatherDisplay:10.37,2013-07-01 05:42:00,
2013-07-01 01:47:00,60.3,59.4,29.89,SSW,194,0.0,2.0,97,0.00,SCT,FEW,0.01,0.0,WeatherDisplay:10.37,2013-07-01 05:47:00,
2013-07-01 01:52:00,60.3,59.4,29.89,SSW,194,0.0,1.0,97,0.00,SCT,FEW,0.01,0.0,WeatherDisplay:10.37,2013-07-01 05:52:00,
2013-07-01 01:57:00,60.3,59.4,29.89,SSW,194,0.0,0.0,97,0.00,SCT,FEW,0.01,0.0,WeatherDisplay:10.37,2013-07-01 05:57:00,
2013-07-01 02:07:00,60.2,59.4,29.89,SSW,194,0.0,0.0,97,0.00,FEW,FEW,0.01,0.0,WeatherDisplay:10.37,2013-07-01 06:07:00,
2013-07-01 02:17:00,60.3,59.4,29.89,SSW,194,0.0,0.0,97,0.00,FEW,FEW,0.01,0.0,WeatherDisplay:10.37,2013-07-01 06:17:00,
2013-07-01 02:22:00,60.3,59.4,29.89,SSW,194,0.0,0.0,97,0.00,FEW,FEW,0.01,0.0,WeatherDisplay:10.37,2013-07-01 06:22:00,
2013-07-01 02:27:00,60.3,59.4,29.89,SSW,194,0.0,3.0,97,0.00,FEW,FEW,0.01,0.0,WeatherDisplay:10.37,2013-07-01 06:27:00,
2013-07-01 02:32:00,60.3,59.4,29.88,SSW,194,0.0,1.0,97,0.00,FEW,FEW,0.01,0.0,WeatherDisplay:10.37,2013-07-01 06:32:00,
2013-07-01 02:37:00,60.3,59.4,29.88,SSW,194,0.0,0.0,97,0.00,FEW,FEW,0.01,0.0,WeatherDisplay:10.37,2013-07-01 06:37:00,
2013-07-01 02:42:00,60.3,59.4,29.88,SSW,194,0.0,0.0,97,0.00,FEW,FEW,0.01,0.0,WeatherDisplay:10.37,2013-07-01 06:42:00,
2013-07-01 02:47:00,60.2,59.4,29.88,SSW,194,0.0,1.0,97,0.00,FEW,FEW,0.01,0.0,WeatherDisplay:10.37,2013-07-01 06:47:00,
2013-07-01 02:52:00,60.2,59.3,29.88,SSW,194,0.0,0.0,97,0.00,FEW,FEW,0.01,0.0,WeatherDisplay:10.37,2013-07-01 06:52:00,
2013-07-01 02:57:00,60.1,59.3,29.88,SSW,194,0.0,1.0,97,0.00,FEW,FEW,0.01,0.0,WeatherDisplay:10.37,2013-07-01 06:57:00,
2013-07-01 03:07:00,60.0,59.2,29.89,SSW,194,0.0,0.0,97,0.00,SCT,FEW,0.01,0.0,WeatherDisplay:10.37,2013-07-01 07:07:00,
2013-07-01 03:17:00,60.0,60.0,29.88,SSW,194,0.0,0.0,100,0.00,BKN,FEW,0.01,0.0,WeatherDisplay:10.37,2013-07-01 07:17:00,
2013-07-01 03:22:00,60.0,60.0,29.89,SSW,194,0.0,0.0,100,0.00,BKN,FEW,0.01,0.0,WeatherDisplay:10.37,2013-07-01 07:22:00,
2013-07-01 03:27:00,60.0,60.0,29.88,SSW,194,0.0,0.0,100,0.00,BKN,FEW,0.01,0.0,WeatherDisplay:10.37,2013-07-01 07:27:00,
2013-07-01 03:37:00,59.9,59.9,29.89,SSW,194,0.0,0.0,100,0.00,BKN,FEW,0.01,0.0,WeatherDisplay:10.37,2013-07-01 07:37:00,
2013-07-01 03:42:00,59.8,59.8,29.89,SSW,194,0.0,0.0,100,0.00,BKN,FEW,0.01,0.0,WeatherDisplay:10.37,2013-07-01 07:42:00,
2013-07-01 03:52:00,59.7,58.9,29.90,SSW,194,0.0,0.0,97,0.00,BKN,FEW,0.01,0.0,WeatherDisplay:10.37,2013-07-01 07:52:00,
2013-07-01 03:57:00,59.7,58.8,29.90,SSW,194,0.0,1.0,97,0.00,BKN,FEW,0.01,0.0,WeatherDisplay:10.37,2013-07-01 07:57:00,
2013-07-01 04:07:00,59.6,58.7,29.90,SSW,194,0.0,0.0,97,0.00,OVC,FEW,0.01,0.0,WeatherDisplay:10.37,2013-07-01 08:07:00,
2013-07-01 04:17:00,59.5,59.5,29.91,SSW,194,0.0,0.0,100,0.00,OVC,FEW,0.01,0.0,WeatherDisplay:10.37,2013-07-01 08:17:00,
2013-07-01 04:22:00,59.5,59.5,29.91,SSW,194,0.0,0.0,100,0.00,OVC,FEW,0.01,0.0,WeatherDisplay:10.37,2013-07-01 08:22:00,
2013-07-01 04:27:00,59.6,59.6,29.90,SSW,194,0.0,0.0,100,0.00,OVC,FEW,0.01,0.0,WeatherDisplay:10.37,2013-07-01 08:27:00,
2013-07-01 04:32:00,59.7,59.7,29.90,SSW,194,0.0,0.0,100,0.00,OVC,FEW,0.01,0.0,WeatherDisplay:10.37,2013-07-01 08:32:00,
2013-07-01 04:37:00,59.7,59.7,29.90,SSW,194,0.0,0.0,100,0.00,OVC,FEW,0.01,0.0,WeatherDisplay:10.37,2013-07-01 08:37:00,
2013-07-01 04:42:00,59.6,59.6,29.90,SSW,194,0.0,0.0,100,0.00,OVC,FEW,0.01,0.0,WeatherDisplay:10.37,2013-07-01 08:42:00,
2013-07-01 04:47:00,59.6,59.6,29.91,SSW,194,0.0,0.0,100,0.00,OVC,FEW,0.01,0.0,WeatherDisplay:10.37,2013-07-01 08:47:00,
2013-07-01 04:52:00,59.6,59.6,29.91,SSW,194,0.0,0.0,100,0.00,OVC,FEW,0.01,0.0,WeatherDisplay:10.37,2013-07-01 08:52:00,
2013-07-01 04:57:00,59.7,59.7,29.91,SSW,194,0.0,0.0,100,0.00,OVC,FEW,0.01,0.0,WeatherDisplay:10.37,2013-07-01 08:57:00,
2013-07-01 05:07:00,59.7,59.7,29.91,SSW,194,0.0,0.0,100,0.00,OVC,FEW,0.01,0.0,WeatherDisplay:10.37,2013-07-01 09:07:00,
2013-07-01 05:17:00,59.8,59.8,29.92,SSW,194,0.0,0.0,100,0.00,OVC,FEW,0.01,0.0,WeatherDisplay:10.37,2013-07-01 09:17:00,
2013-07-01 05:22:00,59.9,59.9,29.92,SSW,194,0.0,0.0,100,0.00,OVC,FEW,0.01,0.0,WeatherDisplay:10.37,2013-07-01 09:22:00,
2013-07-01 05:27:00,59.9,59.9,29.92,SSW,194,0.0,1.0,100,0.00,OVC,FEW,0.01,5.0,WeatherDisplay:10.37,2013-07-01 09:27:00,
2013-07-01 05:32:00,60.0,60.0,29.92,SSW,194,0.0,0.0,100,0.00,OVC,FEW,0.01,9.0,WeatherDisplay:10.37,2013-07-01 09:32:00,
2013-07-01 05:37:00,60.0,60.0,29.93,SSW,194,0.0,0.0,100,0.00,OVC,FEW,0.01,12.0,WeatherDisplay:10.37,2013-07-01 09:37:00,
2013-07-01 05:42:00,60.0,60.0,29.92,SSW,194,0.0,0.0,100,0.00,OVC,FEW,0.01,16.0,WeatherDisplay:10.37,2013-07-01 09:42:00,
2013-07-01 05:47:00,60.0,60.0,29.93,SSW,194,0.0,0.0,100,0.00,OVC,FEW,0.01,16.0,WeatherDisplay:10.37,2013-07-01 09:47:00,
2013-07-01 05:52:00,60.1,60.1,29.93,SSW,194,0.0,1.0,100,0.00,OVC,FEW,0.01,18.0,WeatherDisplay:10.37,2013-07-01 09:52:00,
2013-07-01 05:57:00,60.1,60.1,29.93,SSW,194,0.0,1.0,100,0.00,OVC,FEW,0.01,30.0,WeatherDisplay:10.37,2013-07-01 09:57:00,
2013-07-01 06:07:00,60.2,60.2,29.93,SSW,194,0.0,1.0,100,0.00,OVC,FEW,0.01,26.0,WeatherDisplay:10.37,2013-07-01 10:07:00,
2013-07-01 06:17:00,60.4,60.4,29.93,SSW,194,0.0,1.0,100,0.00,OVC,FEW,0.01,44.0,WeatherDisplay:10.37,2013-07-01 10:17:00,
2013-07-01 06:22:00,60.4,60.4,29.93,SSW,194,0.0,1.0,100,0.00,OVC,FEW,0.01,62.0,WeatherDisplay:10.37,2013-07-01 10:22:00,
2013-07-01 06:27:00,60.5,60.5,29.93,SSW,194,0.0,0.0,100,0.00,OVC,FEW,0.01,76.0,WeatherDisplay:10.37,2013-07-01 10:27:00,
2013-07-01 06:32:00,60.6,60.6,29.93,SSW,194,0.0,0.0,100,0.00,OVC,FEW,0.01,79.0,WeatherDisplay:10.37,2013-07-01 10:32:00,
2013-07-01 06:37:00,60.7,60.7,29.93,SSW,194,0.0,1.0,100,0.00,OVC,FEW,0.01,97.0,WeatherDisplay:10.37,2013-07-01 10:37:00,
2013-07-01 06:42:00,60.8,60.8,29.93,SSW,194,0.0,1.0,100,0.00,OVC,FEW,0.01,149.0,WeatherDisplay:10.37,2013-07-01 10:42:00,
2013-07-01 06:47:00,60.9,60.9,29.93,SSW,194,0.0,2.0,100,0.00,OVC,FEW,0.01,144.0,WeatherDisplay:10.37,2013-07-01 10:47:00,
2013-07-01 06:52:00,61.1,61.1,29.93,SSW,194,0.0,1.0,100,0.00,OVC,FEW,0.01,114.0,WeatherDisplay:10.37,2013-07-01 10:52:00,
2013-07-01 06:57:00,61.3,61.3,29.93,SSW,194,0.0,1.0,100,0.00,OVC,FEW,0.01,95.0,WeatherDisplay:10.37,2013-07-01 10:57:00,
2013-07-01 07:07:00,61.5,60.6,29.94,SSW,194,0.0,1.0,97,0.00,BKN,FEW,0.01,146.0,WeatherDisplay:10.37,2013-07-01 11:07:00,
2013-07-01 07:17:00,61.9,60.7,29.94,SSW,194,0.0,1.0,96,0.00,BKN,FEW,0.01,130.0,WeatherDisplay:10.37,2013-07-01 11:17:00,
2013-07-01 07:22:00,62.0,60.8,29.94,SSW,194,0.0,1.0,96,0.00,BKN,FEW,0.01,146.0,WeatherDisplay:10.37,2013-07-01 11:22:00,
2013-07-01 07:27:00,62.1,60.9,29.95,SSW,194,0.0,0.0,96,0.00,BKN,FEW,0.01,139.0,WeatherDisplay:10.37,2013-07-01 11:27:00,
2013-07-01 07:32:00,62.2,60.5,29.95,SSW,194,0.0,0.0,94,0.00,BKN,FEW,0.01,172.0,WeatherDisplay:10.37,2013-07-01 11:32:00,
2013-07-01 07:37:00,62.6,61.1,29.94,SSW,194,0.0,1.0,95,0.00,BKN,FEW,0.01,227.0,WeatherDisplay:10.37,2013-07-01 11:37:00,
2013-07-01 07:42:00,62.9,61.1,29.95,SSW,194,0.0,1.0,94,0.00,BKN,FEW,0.01,204.0,WeatherDisplay:10.37,2013-07-01 11:42:00,
2013-07-01 07:47:00,63.3,61.2,29.95,SSW,192,0.0,1.0,93,0.00,BKN,FEW,0.01,200.0,WeatherDisplay:10.37,2013-07-01 11:47:00,
2013-07-01 07:52:00,63.5,61.1,29.96,SSW,193,0.0,2.0,92,0.00,BKN,FEW,0.01,207.0,WeatherDisplay:10.37,2013-07-01 11:52:00,
2013-07-01 07:57:00,63.8,61.7,29.96,SSW,192,0.0,2.0,93,0.00,BKN,FEW,0.01,207.0,WeatherDisplay:10.37,2013-07-01 11:57:00,
2013-07-01 08:07:00,64.3,62.2,29.96,SSW,192,0.0,1.0,93,0.00,OVC,FEW,0.01,234.0,WeatherDisplay:10.37,2013-07-01 12:07:00,
2013-07-01 08:17:00,64.6,61.0,29.96,South,190,0.0,2.0,88,0.00,OVC,FEW,0.01,483.0,WeatherDisplay:10.37,2013-07-01 12:17:00,
2013-07-01 08:22:00,64.9,61.6,29.96,South,189,0.0,3.0,89,0.00,OVC,FEW,0.01,330.0,WeatherDisplay:10.37,2013-07-01 12:22:00,
2013-07-01 08:27:00,65.2,60.9,29.96,South,190,0.0,1.0,86,0.00,OVC,FEW,0.01,309.0,WeatherDisplay:10.37,2013-07-01 12:27:00,
2013-07-01 08:32:00,65.5,61.2,29.96,South,190,0.0,2.0,86,0.00,OVC,FEW,0.01,306.0,WeatherDisplay:10.37,2013-07-01 12:32:00,
2013-07-01 08:37:00,65.7,61.4,29.95,SSE,154,0.0,4.0,86,0.00,OVC,FEW,0.01,401.0,WeatherDisplay:10.37,2013-07-01 12:37:00,
2013-07-01 08:42:00,65.9,61.3,29.95,SE,130,1.0,3.0,85,0.00,OVC,FEW,0.01,478.0,WeatherDisplay:10.37,2013-07-01 12:42:00,
2013-07-01 08:47:00,66.4,61.8,29.96,North,357,0.0,2.0,85,0.00,OVC,FEW,0.01,387.0,WeatherDisplay:10.37,2013-07-01 12:47:00,
2013-07-01 08:52:00,66.7,61.0,29.96,NNW,346,0.0,3.0,82,0.00,OVC,FEW,0.01,378.0,WeatherDisplay:10.37,2013-07-01 12:52:00,
2013-07-01 08:57:00,66.8,60.8,29.96,North,357,0.0,2.0,81,0.00,OVC,FEW,0.01,367.0,WeatherDisplay:10.37,2013-07-01 12:57:00,
2013-07-01 09:07:00,67.0,61.6,29.96,North,0,0.0,4.0,83,0.00,OVC,FEW,0.01,338.0,WeatherDisplay:10.37,2013-07-01 13:07:00,
2013-07-01 09:17:00,67.4,62.4,29.96,NNE,29,0.0,3.0,84,0.00,OVC,FEW,0.01,513.0,WeatherDisplay:10.37,2013-07-01 13:17:00,
2013-07-01 09:22:00,68.0,62.3,29.96,NNE,30,1.0,3.0,82,0.00,OVC,FEW,0.01,480.0,WeatherDisplay:10.37,2013-07-01 13:22:00,
2013-07-01 09:27:00,68.3,61.9,29.96,North,7,0.0,4.0,80,0.00,OVC,FEW,0.01,352.0,WeatherDisplay:10.37,2013-07-01 13:27:00,
2013-07-01 09:32:00,68.0,61.6,29.96,North,349,1.0,4.0,80,0.00,BKN,FEW,0.01,362.0,WeatherDisplay:10.37,2013-07-01 13:32:00,
2013-07-01 09:37:00,67.7,61.7,29.97,NNW,339,0.0,2.0,81,0.00,BKN,FEW,0.01,315.0,WeatherDisplay:10.37,2013-07-01 13:37:00,
2013-07-01 09:42:00,67.6,61.9,29.97,NNW,338,0.0,1.0,82,0.00,BKN,FEW,0.01,318.0,WeatherDisplay:10.37,2013-07-01 13:42:00,
2013-07-01 09:47:00,67.6,61.9,29.97,NNW,328,0.0,2.0,82,0.00,BKN,FEW,0.01,348.0,WeatherDisplay:10.37,2013-07-01 13:47:00,
2013-07-01 09:52:00,67.7,61.3,29.97,NNW,328,0.0,5.0,80,0.00,BKN,FEW,0.01,410.0,WeatherDisplay:10.37,2013-07-01 13:52:00,
2013-07-01 09:57:00,67.9,62.2,29.97,NNW,331,0.0,2.0,82,0.00,BKN,FEW,0.01,439.0,WeatherDisplay:10.37,2013-07-01 13:57:00,
2013-07-01 10:07:00,68.2,61.4,29.97,North,352,1.0,5.0,79,0.00,BKN,FEW,0.01,388.0,WeatherDisplay:10.37,2013-07-01 14:07:00,
2013-07-01 10:17:00,68.6,62.2,29.97,West,273,1.0,5.0,80,0.00,BKN,FEW,0.01,489.0,WeatherDisplay:10.37,2013-07-01 14:17:00,
2013-07-01 10:22:00,68.9,62.1,29.97,West,267,0.0,2.0,79,0.00,BKN,FEW,0.01,494.0,WeatherDisplay:10.37,2013-07-01 14:22:00,
2013-07-01 10:27:00,69.1,62.7,29.97,WSW,241,0.0,1.0,80,0.00,BKN,FEW,0.01,513.0,WeatherDisplay:10.37,2013-07-01 14:27:00,
2013-07-01 10:37:00,69.7,62.5,29.98,North,4,0.0,5.0,78,0.00,BKN,FEW,0.01,309.0,WeatherDisplay:10.37,2013-07-01 14:37:00,
2013-07-01 10:42:00,69.5,62.0,29.99,NNE,16,0.0,2.0,77,0.00,BKN,FEW,0.01,260.0,WeatherDisplay:10.37,2013-07-01 14:42:00,
2013-07-01 10:47:00,69.3,61.0,29.99,North,10,0.0,2.0,75,0.00,OVC,FEW,0.01,297.0,WeatherDisplay:10.37,2013-07-01 14:47:00,
2013-07-01 10:52:00,69.0,61.5,29.99,North,6,0.0,3.0,77,0.00,OVC,FEW,0.01,313.0,WeatherDisplay:10.37,2013-07-01 14:52:00,
2013-07-01 10:57:00,68.9,62.1,29.98,North,5,0.0,1.0,79,0.00,OVC,FEW,0.01,352.0,WeatherDisplay:10.37,2013-07-01 14:57:00,
2013-07-01 11:07:00,69.0,61.5,29.99,North,5,0.0,2.0,77,0.00,OVC,FEW,0.01,367.0,WeatherDisplay:10.37,2013-07-01 15:07:00,
2013-07-01 11:17:00,69.1,61.6,30.00,NNW,342,0.0,4.0,77,0.00,OVC,FEW,0.01,362.0,WeatherDisplay:10.37,2013-07-01 15:17:00,
2013-07-01 11:22:00,69.2,61.3,30.00,WSW,255,0.0,3.0,76,0.00,OVC,FEW,0.01,338.0,WeatherDisplay:10.37,2013-07-01 15:22:00,
2013-07-01 11:27:00,69.2,61.3,29.99,WSW,250,0.0,2.0,76,0.00,OVC,FEW,0.01,285.0,WeatherDisplay:10.37,2013-07-01 15:27:00,
2013-07-01 11:32:00,69.0,60.7,29.99,WSW,252,0.0,2.0,75,0.00,OVC,FEW,0.01,257.0,WeatherDisplay:10.37,2013-07-01 15:32:00,
2013-07-01 11:37:00,69.0,61.8,29.99,WSW,254,0.0,1.0,78,0.00,OVC,FEW,0.01,274.0,WeatherDisplay:10.37,2013-07-01 15:37:00,
2013-07-01 11:42:00,68.9,61.0,30.00,WSW,254,0.0,1.0,76,0.00,OVC,FEW,0.01,290.0,WeatherDisplay:10.37,2013-07-01 15:42:00,
2013-07-01 11:47:00,68.9,61.8,30.00,WSW,254,0.0,2.0,78,0.00,-RA,FEW,0.01,309.0,WeatherDisplay:10.37,2013-07-01 15:47:00,
2013-07-01 11:52:00,68.8,61.3,30.00,WSW,254,0.0,4.0,77,0.00,-RA,FEW,0.01,281.0,WeatherDisplay:10.37,2013-07-01 15:52:00,
2013-07-01 11:57:00,68.8,61.3,30.00,NW,309,2.0,4.0,77,0.00,-RA,FEW,0.01,265.0,WeatherDisplay:10.37,2013-07-01 15:57:00,
2013-07-01 12:07:00,69.0,61.5,30.00,NNW,340,0.0,2.0,77,0.00,-RA,FEW,0.01,327.0,WeatherDisplay:10.37,2013-07-01 16:07:00,
2013-07-01 12:17:00,69.0,61.5,30.00,NNW,337,0.0,2.0,77,0.00,-RA,FEW,0.01,394.0,WeatherDisplay:10.37,2013-07-01 16:17:00,
2013-07-01 12:22:00,69.3,61.8,30.00,NW,305,1.0,4.0,77,0.00,-RA,FEW,0.01,413.0,WeatherDisplay:10.37,2013-07-01 16:22:00,
2013-07-01 12:27:00,69.6,61.3,30.00,WNW,283,0.0,2.0,75,0.00,-RA,FEW,0.01,374.0,WeatherDisplay:10.37,2013-07-01 16:27:00,
2013-07-01 12:32:00,69.7,61.8,30.00,WNW,282,1.0,2.0,76,0.00,-RA,FEW,0.01,401.0,WeatherDisplay:10.37,2013-07-01 16:32:00,
2013-07-01 12:37:00,69.8,61.5,30.00,WNW,284,0.0,2.0,75,0.00,-RA,FEW,0.01,548.0,WeatherDisplay:10.37,2013-07-01 16:37:00,
2013-07-01 12:42:00,70.0,61.7,30.00,WNW,288,0.0,3.0,75,0.00,-RA,FEW,0.01,489.0,WeatherDisplay:10.37,2013-07-01 16:42:00,
2013-07-01 12:47:00,70.0,61.0,30.00,WNW,289,0.0,3.0,73,0.00,-RA,FEW,0.01,494.0,WeatherDisplay:10.37,2013-07-01 16:47:00,
2013-07-01 12:52:00,69.9,62.0,30.00,West,272,0.0,3.0,76,0.00,-RA,FEW,0.01,497.0,WeatherDisplay:10.37,2013-07-01 16:52:00,
2013-07-01 12:57:00,70.1,62.2,30.00,WNW,293,0.0,3.0,76,0.00,-RA,FEW,0.01,568.0,WeatherDisplay:10.37,2013-07-01 16:57:00,
2013-07-01 13:07:00,70.2,61.9,30.00,North,352,1.0,6.0,75,0.00,-RA,FEW,0.01,385.0,WeatherDisplay:10.37,2013-07-01 17:07:00,
2013-07-01 13:17:00,70.2,61.5,30.00,NE,36,0.0,3.0,74,0.00,-RA,FEW,0.01,399.0,WeatherDisplay:10.37,2013-07-01 17:17:00,
2013-07-01 13:22:00,70.2,62.6,30.00,NNE,22,1.0,3.0,77,0.00,-RA,FEW,0.01,485.0,WeatherDisplay:10.37,2013-07-01 17:22:00,
2013-07-01 13:32:00,70.5,62.2,29.99,East,83,0.0,4.0,75,0.00,-RA,FEW,0.01,543.0,WeatherDisplay:10.37,2013-07-01 17:32:00,
2013-07-01 13:37:00,70.6,61.5,29.99,ENE,78,0.0,3.0,73,0.00,-RA,FEW,0.01,566.0,WeatherDisplay:10.37,2013-07-01 17:37:00,
2013-07-01 13:42:00,70.6,61.9,29.99,ENE,72,0.0,2.0,74,0.00,-RA,FEW,0.01,512.0,WeatherDisplay:10.37,2013-07-01 17:42:00,
2013-07-01 13:47:00,70.5,61.8,29.99,ENE,69,0.0,1.0,74,0.00,-RA,FEW,0.01,401.0,WeatherDisplay:10.37,2013-07-01 17:47:00,
2013-07-01 13:52:00,70.7,62.4,29.99,ENE,69,0.0,1.0,75,0.00,-RA,FEW,0.01,336.0,WeatherDisplay:10.37,2013-07-01 17:52:00,
2013-07-01 13:57:00,70.8,62.5,29.99,ENE,69,0.0,1.0,75,0.00,-RA,FEW,0.01,371.0,WeatherDisplay:10.37,2013-07-01 17:57:00,
2013-07-01 14:07:00,71.0,62.7,29.99,North,1,1.0,6.0,75,0.00,OVC,FEW,0.01,316.0,WeatherDisplay:10.37,2013-07-01 18:07:00,
2013-07-01 14:17:00,70.6,63.0,29.99,NNW,341,0.0,3.0,77,0.00,OVC,FEW,0.01,285.0,WeatherDisplay:10.37,2013-07-01 18:17:00,
2013-07-01 14:22:00,70.6,62.3,29.99,NNW,341,0.0,1.0,75,0.00,OVC,FEW,0.01,294.0,WeatherDisplay:10.37,2013-07-01 18:22:00,
2013-07-01 14:27:00,70.6,63.0,29.99,NNW,344,0.0,2.0,77,0.00,OVC,FEW,0.01,339.0,WeatherDisplay:10.37,2013-07-01 18:27:00,
2013-07-01 14:32:00,70.5,62.2,29.99,NNE,16,0.0,3.0,75,0.00,OVC,FEW,0.01,353.0,WeatherDisplay:10.37,2013-07-01 18:32:00,
2013-07-01 14:37:00,70.5,62.2,29.99,NNE,18,0.0,1.0,75,0.00,OVC,FEW,0.01,265.0,WeatherDisplay:10.37,2013-07-01 18:37:00,
2013-07-01 14:42:00,70.4,61.7,29.99,NNW,347,1.0,6.0,74,0.00,OVC,FEW,0.01,236.0,WeatherDisplay:10.37,2013-07-01 18:42:00,
2013-07-01 14:47:00,70.4,62.1,29.99,NNW,340,0.0,3.0,75,0.00,OVC,FEW,0.01,221.0,WeatherDisplay:10.37,2013-07-01 18:47:00,
2013-07-01 14:52:00,70.4,62.5,30.00,NNW,338,0.0,2.0,76,0.00,OVC,FEW,0.01,230.0,WeatherDisplay:10.37,2013-07-01 18:52:00,
2013-07-01 14:57:00,70.5,62.6,30.00,NNW,338,0.0,1.0,76,0.00,OVC,FEW,0.01,199.0,WeatherDisplay:10.37,2013-07-01 18:57:00,
2013-07-01 15:07:00,70.3,62.7,30.00,North,353,0.0,4.0,77,0.00,BKN,FEW,0.01,160.0,WeatherDisplay:10.37,2013-07-01 19:07:00,
2013-07-01 15:17:00,69.8,62.3,30.00,NNW,332,0.0,4.0,77,0.00,BKN,FEW,0.01,186.0,WeatherDisplay:10.37,2013-07-01 19:17:00,
2013-07-01 15:22:00,69.4,62.3,30.00,WNW,298,0.0,3.0,78,0.00,BKN,FEW,0.01,202.0,WeatherDisplay:10.37,2013-07-01 19:22:00,
2013-07-01 15:27:00,69.2,61.7,30.00,NW,311,1.0,5.0,77,0.00,BKN,FEW,0.01,162.0,WeatherDisplay:10.37,2013-07-01 19:27:00,
2013-07-01 15:32:00,69.0,61.9,30.00,NNW,327,0.0,3.0,78,0.00,BKN,FEW,0.01,236.0,WeatherDisplay:10.37,2013-07-01 19:32:00,
2013-07-01 15:37:00,68.9,62.1,30.00,WSW,258,0.0,1.0,79,0.00,BKN,FEW,0.01,244.0,WeatherDisplay:10.37,2013-07-01 19:37:00,
2013-07-01 15:42:00,68.9,62.1,30.00,West,269,0.0,3.0,79,0.00,BKN,FEW,0.01,322.0,WeatherDisplay:10.37,2013-07-01 19:42:00,
2013-07-01 15:47:00,69.1,62.3,30.00,West,274,0.0,5.0,79,0.00,BKN,FEW,0.01,292.0,WeatherDisplay:10.37,2013-07-01 19:47:00,
2013-07-01 15:52:00,69.3,62.1,30.00,NNW,330,0.0,5.0,78,0.00,BKN,FEW,0.01,288.0,WeatherDisplay:10.37,2013-07-01 19:52:00,
2013-07-01 15:57:00,69.4,61.9,30.00,NNW,329,1.0,6.0,77,0.00,BKN,FEW,0.01,285.0,WeatherDisplay:10.37,2013-07-01 19:57:00,
2013-07-01 20:07:00,61.6,56.0,30.04,East,95,0.0,0.0,82,0.00,BKN,FEW,0.02,0.0,WeatherDisplay:10.37,2013-07-02 00:07:00,
2013-07-01 20:17:00,61.5,55.9,30.03,East,95,0.0,1.0,82,0.00,OVC,FEW,0.02,0.0,WeatherDisplay:10.37,2013-07-02 00:17:00,
2013-07-01 20:22:00,61.4,56.2,30.04,East,95,0.0,0.0,83,0.00,OVC,FEW,0.02,0.0,WeatherDisplay:10.37,2013-07-02 00:22:00,
2013-07-01 20:27:00,61.2,55.3,30.04,East,95,1.0,2.0,81,0.00,OVC,FEW,0.02,0.0,WeatherDisplay:10.37,2013-07-02 00:27:00,
2013-07-01 20:32:00,61.0,56.1,30.04,East,95,0.0,2.0,84,0.00,OVC,FEW,0.02,0.0,WeatherDisplay:10.37,2013-07-02 00:32:00,
2013-07-01 20:37:00,60.8,55.3,30.04,East,96,0.0,2.0,82,0.00,OVC,FEW,0.02,0.0,WeatherDisplay:10.37,2013-07-02 00:37:00,
2013-07-01 20:42:00,60.6,55.1,30.05,East,96,0.0,2.0,82,0.00,OVC,FEW,0.02,0.0,WeatherDisplay:10.37,2013-07-02 00:42:00,
2013-07-01 20:47:00,60.4,55.2,30.05,East,96,0.0,1.0,83,0.00,OVC,FEW,0.02,0.0,WeatherDisplay:10.37,2013-07-02 00:47:00,
2013-07-01 20:52:00,60.2,55.0,30.05,East,98,0.0,3.0,83,0.00,OVC,FEW,0.02,0.0,WeatherDisplay:10.37,2013-07-02 00:52:00,
2013-07-01 20:57:00,59.9,54.4,30.05,NNE,21,0.0,4.0,82,0.00,OVC,FEW,0.02,0.0,WeatherDisplay:10.37,2013-07-02 00:57:00,
2013-07-01 21:17:00,59.2,55.0,30.06,North,358,0.0,2.0,86,0.00,-RA,FEW,0.02,0.0,WeatherDisplay:10.37,2013-07-02 01:17:00,
2013-07-01 21:22:00,58.9,55.0,30.06,North,355,1.0,4.0,87,0.00,-RA,FEW,0.02,0.0,WeatherDisplay:10.37,2013-07-02 01:22:00,
2013-07-01 21:27:00,58.7,55.1,30.06,North,356,1.0,6.0,88,0.00,-RA,FEW,0.02,0.0,WeatherDisplay:10.37,2013-07-02 01:27:00,
2013-07-01 21:32:00,58.5,55.3,30.06,North,4,0.0,2.0,89,0.00,-RA,FEW,0.02,0.0,WeatherDisplay:10.37,2013-07-02 01:32:00,
2013-07-01 21:37:00,58.5,55.3,30.05,NNE,12,0.0,2.0,89,0.00,-RA,FEW,0.02,0.0,WeatherDisplay:10.37,2013-07-02 01:37:00,
2013-07-01 21:42:00,58.6,55.4,30.06,NE,52,0.0,2.0,89,0.00,-RA,FEW,0.02,0.0,WeatherDisplay:10.37,2013-07-02 01:42:00,
2013-07-01 21:47:00,58.7,55.7,30.06,East,90,0.0,1.0,90,0.00,-RA,FEW,0.02,0.0,WeatherDisplay:10.37,2013-07-02 01:47:00,
2013-07-01 21:52:00,58.8,55.5,30.06,East,95,0.0,1.0,89,0.00,-RA,FEW,0.02,0.0,WeatherDisplay:10.37,2013-07-02 01:52:00,
2013-07-01 21:57:00,58.8,55.9,30.06,East,95,0.0,2.0,90,0.00,-RA,FEW,0.02,0.0,WeatherDisplay:10.37,2013-07-02 01:57:00,
2013-07-01 22:07:00,58.8,55.9,30.06,ENE,70,0.0,2.0,90,0.01,-RA,FEW,0.03,0.0,WeatherDisplay:10.37,2013-07-02 02:07:00,
2013-07-01 22:17:00,58.8,56.2,30.06,North,5,0.0,2.0,91,0.00,-RA,FEW,0.03,0.0,WeatherDisplay:10.37,2013-07-02 02:17:00,
2013-07-01 22:22:00,58.8,56.5,30.07,North,5,0.0,1.0,92,0.00,-RA,FEW,0.03,0.0,WeatherDisplay:10.37,2013-07-02 02:22:00,
2013-07-01 22:27:00,58.7,56.7,30.06,North,5,0.0,0.0,93,0.00,-RA,FEW,0.03,0.0,WeatherDisplay:10.37,2013-07-02 02:27:00,
2013-07-01 22:32:00,58.6,56.6,30.07,North,5,0.0,0.0,93,0.00,-RA,FEW,0.03,0.0,WeatherDisplay:10.37,2013-07-02 02:32:00,
2013-07-01 22:37:00,58.6,56.6,30.07,North,5,0.0,1.0,93,0.00,-RA,FEW,0.03,0.0,WeatherDisplay:10.37,2013-07-02 02:37:00,
2013-07-01 22:42:00,58.5,56.8,30.07,North,5,0.0,0.0,94,0.00,-RA,FEW,0.03,0.0,WeatherDisplay:10.37,2013-07-02 02:42:00,
2013-07-01 22:47:00,58.5,56.8,30.07,North,5,0.0,0.0,94,0.02,RA,FEW,0.05,0.0,WeatherDisplay:10.37,2013-07-02 02:47:00,
2013-07-01 22:52:00,58.5,57.1,30.07,North,5,0.0,1.0,95,0.02,RA,FEW,0.07,0.0,WeatherDisplay:10.37,2013-07-02 02:52:00,
2013-07-01 22:57:00,58.5,57.1,30.07,North,5,0.0,0.0,95,0.01,RA,FEW,0.08,0.0,WeatherDisplay:10.37,2013-07-02 02:57:00,
2013-07-01 23:07:00,58.4,57.0,30.07,North,10,0.0,3.0,95,0.01,RA,FEW,0.09,0.0,WeatherDisplay:10.37,2013-07-02 03:07:00,
2013-07-01 23:17:00,58.3,57.2,30.05,North,10,0.0,2.0,96,0.02,-RA,FEW,0.11,0.0,WeatherDisplay:10.37,2013-07-02 03:17:00,
2013-07-01 23:22:00,58.4,57.2,30.05,North,10,0.0,2.0,96,0.01,-RA,FEW,0.12,0.0,WeatherDisplay:10.37,2013-07-02 03:22:00,
2013-07-01 23:27:00,58.4,57.3,30.06,East,84,0.0,2.0,96,0.01,-RA,FEW,0.13,0.0,WeatherDisplay:10.37,2013-07-02 03:27:00,
2013-07-01 23:32:00,58.4,57.6,30.06,East,81,0.0,2.0,97,0.01,-RA,FEW,0.14,0.0,WeatherDisplay:10.37,2013-07-02 03:32:00,
2013-07-01 23:37:00,58.5,57.7,30.06,ENE,72,0.0,2.0,97,0.00,-RA,FEW,0.14,0.0,WeatherDisplay:10.37,2013-07-02 03:37:00,
2013-07-01 23:47:00,58.6,57.8,30.05,NNE,26,1.0,4.0,97,0.01,-RA,FEW,0.15,0.0,WeatherDisplay:10.37,2013-07-02 03:47:00,
2013-07-01 23:52:00,58.7,57.8,30.05,ESE,110,2.0,4.0,97,0.00,-RA,FEW,0.15,0.0,WeatherDisplay:10.37,2013-07-02 03:52:00,
2013-07-01 23:57:00,58.7,57.9,30.06,SE,126,1.0,3.0,97,0.00,-RA,FEW,0.15,0.0,WeatherDisplay:10.37,2013-07-02 03:57:00,